Sedalia, MO

4:44 PM CST on February 10, 2016 (GMT -0600)
Sedalia Memorial

Weather History for KDMO - January, 2014

Change the Weather History Date:

Wednesday, January 22, 2014

  Actual Average Record
Temperature  
Mean Temperature 23 °F 32 °F  
Max Temperature 36 °F 40 °F 72 °F (1967)
Min Temperature 10 °F 23 °F -13 °F (1978)
Degree Days  
Heating Degree Days 42 33  
Month to date heating degree days 819 743  
Since 1 July heating degree days 2793 2524  
Cooling Degree Days 0 0  
Month to date cooling degree days 0 0  
Year to date cooling degree days 0 0  
Moisture  
Dew Point 10 °F    
Average Humidity 48    
Maximum Humidity 63    
Minimum Humidity 32    
Precipitation  
Precipitation T in 0.05 in 0.70 in (1957)
Month to date precipitation 0.22 1.14  
Year to date precipitation 0.22 1.14  
Sea Level Pressure  
Sea Level Pressure 30.20 in    
Wind  
Wind Speed 14 mph (WNW)    
Max Wind Speed 26 mph    
Max Gust Speed 35 mph    
Visibility 10 miles    
Events Snow    
T = Trace of Precipitation, MM = Missing Value Source: NWS Daily Summary

Daily Weather History Graph

Daily Weather History Graph

Search for Another Location

Airport or City:

Trip Planner

Search our weather history database for the weather conditions in past years. The results will help you decide how hot, cold, wet, or windy it might be!

Date:

Astronomy

Jan. 22, 2014 Rise Set
Actual Time 7:25 AM CST 5:23 PM CST
Civil Twilight 6:57 AM CST 5:51 PM CST
Nautical Twilight 6:24 AM CST 6:24 PM CST
Astronomical Twilight 5:53 AM CST 6:55 PM CST
Moon 11:51 PM CST (1/22) 10:31 AM CST (1/22)
Length of Visible Light 10h 54m
Length of Day
9h 57m
Waning Gibbous, 65% of the Moon is Illuminated
Jan 22
Waning Gibbous
Jan 23
Last Quarter
Jan 30
New
Feb 6
First Quarter
Feb 14
Full

Hourly Weather History & Observations

Time (CST) Temp. Windchill Dew Point Humidity Pressure Visibility Wind Dir Wind Speed Gust Speed Precip Events Conditions
12:53 AM 21.0 °F 12.4 °F 3.9 °F 48% 30.17 in 10.0 mi SSW 6.9 mph - N/A   Overcast
1:53 AM 21.0 °F 11.4 °F 5.0 °F 50% 30.14 in 10.0 mi SSW 8.1 mph - N/A   Overcast
2:53 AM 21.9 °F 11.7 °F 6.1 °F 51% 30.12 in 10.0 mi SSW 9.2 mph - N/A   Overcast
3:53 AM 21.9 °F 9.2 °F 5.0 °F 48% 30.10 in 10.0 mi SW 13.8 mph - N/A   Overcast
4:53 AM 23.0 °F 11.7 °F 5.0 °F 46% 30.11 in 10.0 mi WSW 11.5 mph - N/A   Overcast
5:53 AM 24.1 °F 13.1 °F 8.1 °F 51% 30.10 in 10.0 mi West 11.5 mph - N/A   Overcast
6:53 AM 23.0 °F 12.4 °F 9.0 °F 55% 30.12 in 10.0 mi West 10.4 mph - N/A   Scattered Clouds
7:01 AM 24.1 °F 12.0 °F 10.0 °F 55% 30.08 in 10.0 mi West 13.8 mph - N/A   Mostly Cloudy
7:53 AM 24.1 °F 14.4 °F 12.0 °F 60% 30.13 in 10.0 mi West 9.2 mph - N/A   Mostly Cloudy
8:04 AM 25.0 °F 14.2 °F 12.0 °F 58% 30.09 in 10.0 mi West 11.5 mph - N/A   Scattered Clouds
8:53 AM 27.0 °F 16.1 °F 15.1 °F 61% 30.15 in 10.0 mi WNW 12.7 mph - N/A   Overcast
9:53 AM 30.0 °F 22.4 °F 16.0 °F 56% 30.16 in 10.0 mi WNW 8.1 mph - N/A   Overcast
10:50 AM 28.4 °F 17.5 °F 19.4 °F 69% 30.15 in 4.0 mi NW 13.8 mph - 0.00 in Snow Light Snow
10:53 AM 30.0 °F 19.1 °F 19.0 °F 64% 30.18 in 5.0 mi NW 15.0 mph - 0.00 in Snow Light Snow
11:00 AM 30.9 °F 19.4 °F 19.0 °F 61% 30.15 in 8.0 mi NW 17.3 mph 21.9 mph 0.00 in Snow Light Snow
11:53 AM 30.9 °F 19.4 °F 17.1 °F 57% 30.19 in 10.0 mi NW 17.3 mph 24.2 mph 0.00 in   Overcast
12:53 PM 33.1 °F 23.0 °F 17.1 °F 52% 30.17 in 10.0 mi NW 15.0 mph - N/A   Clear
2:53 PM 36.0 °F 27.1 °F 9.0 °F 33% 30.14 in 10.0 mi WNW 13.8 mph - N/A   Clear
3:53 PM 34.0 °F 23.4 °F 7.0 °F 32% 30.17 in 10.0 mi NW 17.3 mph - N/A   Scattered Clouds
4:53 PM 33.1 °F 22.2 °F 9.0 °F 37% 30.19 in 10.0 mi NW 17.3 mph 21.9 mph N/A   Partly Cloudy
5:53 PM 28.9 °F 19.2 °F 10.9 °F 47% 30.21 in 10.0 mi North 11.5 mph - N/A   Mostly Cloudy
6:53 PM 26.1 °F 16.8 °F 12.9 °F 58% 30.25 in 10.0 mi NNW 9.2 mph - N/A   Clear
7:53 PM 26.1 °F 12.7 °F 12.0 °F 55% 30.29 in 10.0 mi NNW 18.4 mph - N/A   Clear
8:53 PM 23.0 °F 6.9 °F 10.9 °F 60% 30.34 in 10.0 mi North 24.2 mph 29.9 mph N/A   Partly Cloudy
9:53 PM 17.1 °F -0.6 °F 1.9 °F 52% 30.40 in 10.0 mi North 23.0 mph 32.2 mph N/A   Clear
10:53 PM 14.0 °F -3.9 °F -0.9 °F 52% 30.46 in 10.0 mi North 20.7 mph - N/A   Clear
11:53 PM 10.0 °F -9.1 °F -4.0 °F 53% 30.51 in 10.0 mi NNW 20.7 mph - N/A   Clear